Location: Ballingbuur
(53.0000°N, 5.7667°E)
Time: 05:48:39
(UTC+00:00)

Cosmos 1680 Rocket - Pass Details

Date: 29 November 2020
Orbit: 760 x 781 km, 74.1° (Epoch: 23 January)

Event Time Altitude Azimuth Distance (km) Brightness Sun altitude
Exits shadow 04:19:51 80° 354° (N) 800 3.4 -26.8°
Maximum altitude 04:20:09 87° 65° (ENE) 791 3.4 -26.8°
Drops below altitude 10° 04:25:28 10° 155° (SSE) 2,330 6.3 -26.0°
Sets 04:27:50 0° 155° (SSE) 3,252 7.1 -25.6°
